Location: Banff
(51.1667°N, 115.5667°W)
Time: 09:46:52
(UTC+00:00)

A-11 Canister half - Pass Details

Date: 26 November 2020
Orbit: 1524 x 1684 km, 47.3° (Epoch: 20 January)

Event Time Altitude Azimuth Distance (km) Brightness Sun altitude
Rises 11:44:25 0° 171° (S) 4,926 11.7 -32.7°
Reaches altitude 10° 11:50:15 10° 145° (SE) 3,937 11.4 -31.7°
Maximum altitude 11:53:56 13° 123° (ESE) 3,724 11.6 -31.2°
Drops below altitude 10° 11:57:36 10° 101° (E) 3,921 12.0 -30.6°
Sets 12:03:19 0° 76° (ENE) 4,886 12.8 -29.7°
